Location: Dittelspoint
(48.7198°N, 10.7214°E)
Time: 17:30:22
(UTC+00:00)

Daily predictions for brighter satellites

Satellite Brightness Start Highest point End
(mag) Time Altitude Azimuth Time Altitude Azimuth Time Altitude Azimuth
NOSS 3-4 (A) 4.0 19:19:45 10° NW 19:26:39 77° NE 19:34:23 10° SE
NOSS 3-4 (C) 4.0 19:19:52 10° NW 19:26:46 76° NE 19:34:30 10° SE
Cosmos 1777 Rocket 4.0 19:22:22 10° SSW 19:27:31 70° ESE 19:32:43 10° NNE
Resurs 1-3 3.7 19:25:25 10° SSE 19:29:48 85° WSW 19:34:14 10° NNW
Cosmos 1666 3.4 19:27:10 10° N 19:30:38 35° ENE 19:34:04 10° SE
Cosmos 1242 Rocket 3.8 19:27:55 10° SSW 19:31:18 44° WNW 19:34:41 10° N
Ariane Rocket 3.2 19:27:13 10° S 19:32:16 77° WSW 19:37:23 10° NNW
USA 186 4.0 19:32:14 10° SW 19:33:43 15° W 19:35:11 10° NW
NOSS 3-3 (A) 4.3 19:30:48 10° SW 19:36:37 75° NW 19:43:23 10° NE
NOSS 3-3 (C) 4.3 19:30:53 10° SW 19:36:44 75° NW 19:43:29 10° NE
ARIANE 5 R/B 3.9 19:33:16 10° ESE 19:36:50 26° ENE 19:40:27 10° N
Meteor 1-14 Rocket 4.3 19:31:29 10° NNW 19:37:22 88° ENE 19:43:03 10° S
Cosmos 1812 2.9 19:35:08 10° S 19:38:52 51° E 19:42:38 10° NNE
ATLAS 2AS CENTAUR R/B 3.2 19:32:34 10° NW 19:40:00 61° NE 19:46:50 10° ESE
Cosmos 1833 Rocket 3.0 19:34:22 10° NNW 19:40:01 70° WSW 19:45:37 10° SSE
USA 245 3.8 19:41:15 10° ESE 19:42:59 19° ENE 19:44:51 10° NNE
USA 307 3.7 19:38:58 10° WNW 19:43:01 43° SW 19:47:05 10° SSE
Cosmos 1709 Rocket 4.4 19:39:10 10° NNW 19:45:13 67° W 19:51:16 10° S
USA 215 4.2 19:39:52 10° ENE 19:46:10 51° NNW 19:52:26 10° W
CZ-4C R/B 3.6 19:40:50 10° NW 19:47:53 54° WSW 19:56:00 10° SSE
Cosmos 158 Rocket 3.9 19:43:20 10° NNW 19:48:14 70° ENE 19:53:10 10° SSE
SL-24 R/B - RUBIN 2 4.5 19:42:55 10° NW 19:48:25 53° NE 19:53:10 10° ESE
Cosmos 923 Rocket 4.4 19:44:46 10° NNW 19:49:57 54° ENE 19:54:56 11° SE
Cosmos 44 3.9 19:47:12 10° NNW 19:52:36 56° NE 19:57:31 11° ESE
Cosmos 1818 4.4 19:47:37 10° NNW 19:52:51 42° NE 19:58:03 10° ESE
Cosmos 2074 Rocket 4.2 19:49:42 10° N 19:55:59 63° ENE 20:02:12 10° SSE
Cosmos 1782 4.0 19:52:47 10° SSW 19:56:37 46° WNW 20:00:29 10° N
USA 308 4.0 19:52:54 10° WNW 19:56:49 35° SW 20:00:33 11° SSE
Cosmos 2184 Rocket 4.1 19:51:01 10° N 19:57:11 62° ENE 20:03:15 10° SSE
Cosmos 1500 4.0 19:57:46 10° NNW 20:01:24 49° W 20:04:59 10° S
Cosmos 1743 4.5 19:58:48 10° NNE 20:01:38 19° ENE 20:04:02 12° ESE
CRYOSAT 2 4.4 19:59:32 10° S 20:04:26 86° W 20:09:22 10° N
Cosmos 1437 4.4 20:02:15 10° SW 20:04:48 30° WNW 20:07:23 10° N
Meteor 1-5 Rocket 4.3 20:01:27 10° NNW 20:06:48 75° W 20:12:04 10° S
Gbstr 26 Del rocket 4.4 20:01:12 10° WNW 20:09:08 85° NNE 20:15:50 10° ESE
Terra 2.9 20:12:16 14° ESE 20:15:43 32° ENE 20:19:56 10° N
MetOp-B 4.3 20:11:41 10° S 20:17:02 77° WSW 20:22:25 10° NNW
Cosmos 1461 4.2 20:14:10 12° SSE 20:17:26 24° ESE 20:21:11 10° ENE
Cosmos 2297 4.2 20:12:15 10° S 20:17:28 38° ESE 20:22:40 10° NE
Meteor 1-11 Rocket 3.9 20:12:18 10° N 20:18:18 76° ENE 20:23:30 13° SSE
Cosmos 1515 Rocket 4.0 20:16:21 10° SSW 20:20:42 63° WNW 20:25:03 10° N
Cosmos 1340 Rocket 3.5 20:18:23 10° N 20:22:15 40° ENE 20:24:45 19° SE
Cosmos 2228 Rocket 3.1 20:19:04 10° S 20:23:23 62° E 20:27:50 10° NNE
Tianhe-1 2.6 20:22:41 10° SW 20:25:02 19° S 20:25:05 19° S
Cosmos 1869 Rocket 3.5 20:21:30 10° N 20:25:51 69° E 20:29:01 18° SSE
Resurs 01 Rocket 2.8 20:22:37 10° SSW 20:26:46 39° W 20:30:58 10° NNW
Cosmos 2112 Rocket 4.1 20:23:03 10° NNW 20:28:26 73° ENE 20:32:23 19° SSE
BREEZE M DEB (TANK) 1.7 20:26:24 10° WNW 20:30:18 54° SSW 20:31:13 29° SE
Cosmos 2082 Rocket 2.7 20:25:23 10° NW 20:30:52 55° WSW 20:35:40 13° S
SPOT 1/Viking Rocket 3.8 20:27:48 12° S 20:32:38 70° WSW 20:37:49 10° NNW
ERS-1 Rocket 3.1 20:29:27 18° SSE 20:33:07 64° ENE 20:38:06 10° N
Spot 2 Rocket 3.5 20:35:19 16° S 20:39:25 79° WSW 20:44:29 10° NNW
Cosmos 1943 Rocket 2.6 20:35:05 13° S 20:39:43 42° ESE 20:44:58 10° NE
Meteor 2-12 Rocket 4.5 20:34:25 10° N 20:40:31 84° W 20:45:36 15° S
Cosmos 1937 Rocket 3.8 20:36:59 16° S 20:40:47 44° ESE 20:45:42 10° NE
ERBS 2.2 20:40:05 10° NW 20:43:24 85° NNE 20:44:57 29° ESE
Cosmos 1707 Rocket 4.0 20:41:46 23° SSE 20:44:09 44° E 20:48:23 10° NNE
CARTOSAT-1 3.6 20:42:25 19° S 20:45:29 76° WSW 20:49:49 10° NNW
SPOT 5 3.1 20:42:26 20° SSE 20:46:07 81° ENE 20:51:30 10° NNW
Cosmos 1536 2.8 20:42:09 10° NNW 20:46:12 82° W 20:48:43 22° S
CZ-2C R/B 4.3 20:42:21 10° N 20:46:48 57° WNW 20:51:18 10° SSW
DNEPR-1 R/B 4.1 20:42:15 10° SSW 20:48:07 56° ESE 20:52:59 10° NE
Cosmos 1271 Rocket 3.9 20:46:21 10° SSW 20:50:11 43° WNW 20:54:02 10° N
Cosmos 2341 Rocket 4.2 20:47:17 10° N 20:53:38 60° ENE 20:57:43 23° SSE
Cosmos 1680 Rocket 3.8 20:48:38 10° NNW 20:53:54 63° WSW 20:57:31 20° S
SL-24 DEB 4.2 20:52:57 24° SSE 20:55:43 74° E 21:00:20 10° N
ISS -3.9 20:52:35 10° WSW 20:55:57 83° SSE 20:59:20 10° ENE
Cosmos 1238 Rocket 4.0 20:50:38 10° N 20:56:22 50° ENE 20:59:04 25° SE
Cosmos 2278 Rocket 3.8 20:51:38 10° WSW 20:56:51 37° NW 21:02:05 10° NNE
Cosmos 2084 Rocket 3.7 20:54:30 10° NW 20:58:44 61° SW 21:00:52 28° SSE
Centaur D AC-29 4.4 19:34:46 10° SW 20:58:59 29° SSW 21:05:49 20° SSE
SJ 16-02 3.3 20:55:14 10° WSW 20:59:10 31° WNW 21:03:08 10° N
Cosmos 1544 3.1 20:55:56 10° NNW 20:59:34 76° W 21:01:17 29° S
Cosmos 2369 Rocket 2.9 20:58:46 24° SSE 21:01:06 34° ESE 21:06:09 10° NE
Cosmos 1975 3.9 21:00:32 10° N 21:04:06 30° ENE 21:05:24 25° ESE
Cosmos 1733 Rocket 3.0 21:06:17 10° N 21:10:37 67° E 21:12:25 33° SSE
ARIANE 5 R/B 3.7 21:10:14 17° SSW 21:13:09 38° W 21:17:13 10° NNW
SL-8 Rocket 4.1 21:06:56 10° N 21:13:15 65° ENE 21:16:50 27° SSE
RESURS DK-1 3.3 21:11:56 10° NNW 21:15:53 39° NE 21:17:43 25° ESE
Meteor 2-9 Rocket 4.4 21:10:16 10° N 21:15:59 64° ENE 21:18:52 29° SSE
SL-27 R/B 4.3 21:16:01 10° N 21:18:34 20° ENE 21:19:32 18° E
BREEZE-M DEB (TANK) 2.4 21:17:35 10° W 21:18:58 32° WSW 21:18:58 32° WSW
Cosmos 372 Rocket 4.0 21:20:07 29° S 21:22:31 57° ESE 21:27:31 10° NNE
Cosmos 1898 Rocket 4.1 21:22:53 10° SW 21:28:07 59° WNW 21:33:26 10° NNE
USA 215 4.4 21:22:25 10° ENE 21:28:31 44° N 21:34:38 10° WNW
Cosmos 1908 Rocket 4.2 21:26:12 10° N 21:30:29 43° ENE 21:31:53 32° ESE
ATLAS 2AS CENTAUR R/B 3.6 21:24:01 10° NW 21:30:41 39° WSW 21:34:29 22° S
Cosmos 1818 4.2 21:31:18 10° NW 21:36:30 44° WSW 21:38:46 29° S
Cosmos 1743 3.8 21:33:56 10° NNW 21:37:34 39° W 21:39:06 26° SW
Cosmos 864 Rocket 4.4 21:32:12 10° N 21:38:23 78° E 21:41:23 32° SSE
Cosmos 1959 Rocket 4.4 21:34:43 10° N 21:40:58 83° E 21:43:59 32° SSE
Cosmos 2242 Rocket 4.2 21:44:02 36° ESE 21:44:51 39° E 21:49:03 10° NNE
Meteor 1-19 Rocket 4.0 21:43:17 30° S 21:46:01 89° ESE 21:51:30 10° NNE
BREEZE-M R/B 2.8 21:46:15 10° W 21:48:00 42° W 21:48:00 42° W
H-2A R/B 4.2 21:46:01 10° N 21:50:04 50° WNW 21:52:23 23° SW
Meteor 2-4 Rocket 3.8 21:50:59 36° SSE 21:53:11 62° E 21:58:40 10° NNE
Terra 2.9 21:51:09 23° SW 21:53:25 35° W 21:57:48 10° NNW
Cosmos 44 Rocket 3.9 21:48:27 10° NNW 21:53:37 54° NE 21:56:12 27° ESE
Cosmos 1461 3.7 21:51:37 10° SW 21:56:14 57° NW 22:00:48 10° NNE
Okean 1-7 3.4 21:56:31 43° ESE 21:57:07 46° E 22:01:14 10° NNE
Cosmos 2150 Rocket 4.3 21:56:17 40° SSE 21:57:43 50° ESE 22:02:49 10° NNE
Cosmos 1862 Rocket 3.9 21:57:49 32° SW 21:59:36 58° WNW 22:03:53 10° N
Cosmos 1703 Rocket 3.8 22:00:16 47° SE 22:01:02 53° E 22:05:22 10° NNE
Cosmos 468 4.4 21:55:57 10° NNW 22:01:16 85° ENE 22:03:06 42° SSE
Okean 1 4.3 22:00:55 27° SW 22:02:36 42° WNW 22:06:25 10° N
Cosmos 1782 Rocket 4.0 21:58:42 10° N 22:03:03 50° ENE 22:04:03 42° ESE
Cosmos 1833 4.2 21:58:22 10° NNW 22:04:10 87° ENE 22:06:28 39° SSE
Cosmos 1125 Rocket 3.9 22:04:18 40° SE 22:05:23 46° ESE 22:10:22 10° NNE
ATLAS CENTAUR R/B 1.0 22:10:15 66° ESE 22:10:15 66° ESE 22:13:52 10° NE
Cosmos 1607 3.9 22:06:38 23° SSW 22:10:51 79° SE 22:17:22 10° NE
COSMOS 2487 4.2 22:09:34 10° N 22:12:19 22° ENE 22:12:53 21° ENE
Cosmos 1821 Rocket 4.1 22:08:32 10° N 22:14:57 70° ENE 22:17:36 37° SSE
Cosmos 2366 rocket 4.4 22:09:59 10° NNW 22:16:02 57° W 22:18:59 30° SSW
Cosmos 2181 Rocket 4.4 22:16:13 23° SW 22:19:58 55° WNW 22:25:59 10° N
Cosmos 1943 Rocket 3.5 22:18:19 10° WSW 22:23:32 38° NW 22:28:44 10° NNE
Meteor 1-13 Rocket 4.4 22:22:22 42° SSE 22:23:55 57° E 22:29:19 10° NNE
Spot 4 4.0 22:30:35 48° SSW 22:31:49 66° WSW 22:36:40 10° NNW
Cosmos 1867 3.8 22:28:40 21° SW 22:32:23 71° NW 22:37:53 10° NE
Cosmos 1656 Rocket 3.6 22:30:08 33° SW 22:32:41 79° WNW 22:38:17 10° NNE
ISS -2.8 22:29:39 10° W 22:32:57 49° N 22:36:15 10° ENE
Cosmos 1975 4.4 22:37:10 10° NW 22:40:25 24° W 22:41:09 23° WSW
Cosmos 2221 Rocket 4.5 22:40:01 34° ESE 22:40:33 36° E 22:44:44 10° NNE
Cosmos 1733 3.8 22:39:58 10° N 22:43:38 43° ENE 22:43:52 43° E
Cosmos 2369 Rocket 3.1 22:40:29 15° WSW 22:44:59 46° NW 22:50:27 10° NNE
Cosmos 1400 Rocket 4.4 22:41:50 10° N 22:45:16 25° ENE 22:46:15 23° E
Cosmos 724 4.4 22:44:33 40° SSW 22:46:49 71° ESE 22:53:04 10° NE
Cosmos 2344 4.3 22:38:57 10° NW 22:48:10 81° SW 22:56:38 24° SSE
ALOS 2 2.5 22:47:44 62° SSW 22:48:21 76° WSW 22:52:47 10° NNW
BREEZE-M DEB (TANK) 4.1 22:38:13 10° WNW 22:51:33 53° SW 22:52:48 44° S
SeaSat 1 4.1 22:48:28 10° ENE 22:52:03 20° ESE 22:52:11 20° ESE
Okean 3 3.3 22:51:44 70° SSW 22:52:13 87° W 22:56:28 10° N
SL-27 R/B 3.8 22:50:41 10° NW 22:53:02 28° W 22:53:02 28° W
RESURS DK-1 3.8 22:50:18 10° NW 22:53:36 25° WSW 22:53:36 25° WSW
Lacrosse 5 1.9 22:54:17 54° SSE 22:54:42 56° SE 22:59:41 10° ENE
Cosmos 1356 Rocket 3.6 22:53:01 10° NNW 22:57:16 59° W 22:57:43 56° SW
NOSS 2-1 (E) 4.2 22:53:16 10° NW 22:58:13 80° SW 23:00:42 39° SSE
Nimbus 7 Rocket 4.4 22:53:20 10° NNE 22:59:15 71° ESE 23:01:10 44° S
Cosmos 1269 Rocket 3.9 22:56:21 10° NNW 23:01:41 86° ENE 23:03:10 49° SSE
Nadezhda 3 Rocket 4.1 22:59:44 37° SSW 23:02:17 70° W 23:08:29 10° N
Cosmos 1300 Rocket 3.4 22:57:57 10° N 23:02:22 88° ENE 23:02:55 68° SSE
USA 215 3.6 23:04:33 10° ESE 23:11:00 65° NNE 23:17:29 10° NW
Thor Agena Rocket 3.6 23:09:02 10° NNE 23:14:19 73° ESE 23:15:40 50° S
Sich 1 Rocket 3.7 23:11:34 10° NNW 23:16:04 61° W 23:16:39 55° SW
Cosmos 1805 3.4 23:14:35 10° NNW 23:18:26 60° W 23:18:26 60° W
COSMOS 2455 3.0 23:12:28 10° NNW 23:18:31 71° NE 23:21:45 29° SE
Cosmos 1726 3.5 23:16:54 10° N 23:20:11 29° ENE 23:20:43 28° E
Cosmos 1605 Rocket 4.0 23:14:52 10° N 23:21:11 79° E 23:23:40 40° SSE
Okean 2 4.5 23:21:02 32° ESE 23:21:27 33° E 23:25:12 10° NNE
Cosmos 1378 4.3 23:22:00 32° W 23:22:20 32° WNW 23:25:45 10° N
Cosmos 1066 Rocket 4.4 23:22:33 39° SW 23:24:34 63° WNW 23:30:09 10° N
Okean 2 Rocket 3.1 23:23:18 10° NNW 23:27:40 65° W 23:28:09 60° SW
Meteor 1-15 Rocket 4.5 23:22:43 10° NNW 23:28:20 59° W 23:30:02 42° SSW
Cosmos 2151 Rocket 3.5 23:25:11 10° NNW 23:29:43 80° W 23:30:21 64° SSW
Cosmos 2227 Rocket 3.0 23:28:13 10° NNW 23:33:41 47° NE 23:37:44 18° ESE
Cosmos 44 Rocket 4.4 23:30:26 10° NW 23:34:54 30° WSW 23:34:54 30° WSW
Cosmos 2297 Rocket 2.6 23:30:18 10° NNW 23:35:57 61° ENE 23:39:09 26° SE
PSLV R/B 3.5 23:31:37 10° NNE 23:35:57 69° ESE 23:36:26 61° SE
EO 1 Delta rocket 4.3 23:34:38 45° S 23:36:30 88° W 23:43:13 10° N
Cosmos 1766 3.5 23:33:05 10° NNW 23:36:58 54° W 23:36:58 54° W
Cosmos 1656 4.3 23:40:31 34° SE 23:41:47 39° ESE 23:46:53 10° NE
Timation 2 Rocket 4.2 23:39:54 10° NNW 23:45:52 64° ENE 23:49:54 21° SE
COSMOS 2487 4.1 23:44:14 10° NW 23:46:11 23° WNW 23:46:11 23° WNW
Cosmos 1953 4.3 23:45:25 10° NNE 23:48:36 22° ENE 23:50:31 16° ESE
ATLAS CENTAUR R/B 3.6 23:46:31 10° W 23:49:21 20° NNW 23:52:18 10° NNE
Cosmos 1378 Rocket 3.4 23:53:20 65° S 23:53:58 90° NW 23:58:18 10° N
Cosmos 1975 Rocket 4.4 23:54:16 25° ESE 23:55:25 29° E 23:59:11 10° NNE
